YMA7123 SBMN-SBSN

Flight info

Callsign YMA7123
Flight time 0h 50m
Altitude 31000
Route SBMN DOLTI MPOLI XOLOP OPLIP TUBUX SBSN
Aircraft B738/M-L/2000

Departure

Time 2026-05-09 08:31
Airport Ponta Pelada Airport / Manaus Air Base (SBMN)

Arrival

Time 2026-05-09 09:21
Airport Santarém - Maestro Wilson Fonseca International Airport (SBSN)
Time Latitude Longitude Altitude Speed Heading
2026-05-09 08:20 -3.14587 -59.99190 235 ft 0 kts 348°
2026-05-09 08:26 -3.14585 -59.99189 235 ft 0 kts 22°
2026-05-09 08:27 -3.14587 -59.99181 235 ft 2 kts 140°
2026-05-09 08:27 -3.14619 -59.99181 235 ft 6 kts 204°
2026-05-09 08:27 -3.14640 -59.99228 234 ft 8 kts 257°
2026-05-09 08:27 -3.14656 -59.99293 233 ft 10 kts 255°
2026-05-09 08:28 -3.14676 -59.99369 231 ft 12 kts 256°
2026-05-09 08:28 -3.14696 -59.99455 230 ft 13 kts 256°
2026-05-09 08:28 -3.14719 -59.99543 226 ft 11 kts 248°
2026-05-09 08:28 -3.14781 -59.99603 223 ft 13 kts 219°
2026-05-09 08:29 -3.14830 -59.99622 221 ft 5 kts 158°
2026-05-09 08:29 -3.14839 -59.99596 222 ft 2 kts 77°
2026-05-09 08:29 -3.14838 -59.99594 222 ft 0 kts 77°
2026-05-09 08:30 -3.14810 -59.99478 227 ft 47 kts 76°
2026-05-09 08:30 -3.14670 -59.98929 231 ft 115 kts 75°
2026-05-09 08:30 -3.14421 -59.97945 220 ft 173 kts 75°
2026-05-09 08:30 -3.14122 -59.96770 859 ft 166 kts 75°
2026-05-09 08:31 -3.13895 -59.95657 1422 ft 176 kts 86°
2026-05-09 08:31 -3.13794 -59.94363 1877 ft 194 kts 81°
2026-05-09 08:31 -3.13607 -59.92997 2564 ft 203 kts 80°
2026-05-09 08:31 -3.13384 -59.91582 3228 ft 215 kts 80°
2026-05-09 08:32 -3.13130 -59.90034 3811 ft 236 kts 80°
2026-05-09 08:32 -3.12851 -59.88385 4503 ft 251 kts 80°
2026-05-09 08:32 -3.12254 -59.84883 6445 ft 257 kts 81°
2026-05-09 08:33 -3.11959 -59.83135 7226 ft 264 kts 80°
2026-05-09 08:33 -3.11644 -59.81294 7995 ft 271 kts 80°
2026-05-09 08:33 -3.11328 -59.79437 8837 ft 274 kts 80°
2026-05-09 08:33 -3.11009 -59.77563 9619 ft 279 kts 80°
2026-05-09 08:34 -3.10682 -59.75651 10268 ft 287 kts 80°
2026-05-09 08:34 -3.10336 -59.73633 10683 ft 303 kts 80°
2026-05-09 08:34 -3.09971 -59.71498 11065 ft 320 kts 79°
2026-05-09 08:34 -3.09584 -59.69240 11475 ft 336 kts 80°
2026-05-09 08:35 -3.09185 -59.66902 11988 ft 346 kts 80°
2026-05-09 08:35 -3.08785 -59.64567 12812 ft 346 kts 80°
2026-05-09 08:35 -3.08372 -59.62146 13322 ft 356 kts 80°
2026-05-09 08:35 -3.07960 -59.59732 14022 ft 357 kts 79°
2026-05-09 08:36 -3.07541 -59.57283 14723 ft 358 kts 79°
2026-05-09 08:36 -3.07112 -59.54782 15179 ft 367 kts 79°
2026-05-09 08:36 -3.06682 -59.52260 15908 ft 365 kts 79°
2026-05-09 08:36 -3.06248 -59.49728 16475 ft 369 kts 79°
2026-05-09 08:37 -3.05804 -59.47132 16913 ft 375 kts 79°
2026-05-09 08:37 -3.05363 -59.44572 17589 ft 373 kts 79°
2026-05-09 08:37 -3.04929 -59.42036 18031 ft 378 kts 79°
2026-05-09 08:37 -3.04484 -59.39438 18503 ft 380 kts 79°
2026-05-09 08:38 -3.04034 -59.36823 18984 ft 383 kts 80°
2026-05-09 08:38 -3.03581 -59.34168 19317 ft 389 kts 80°
2026-05-09 08:38 -3.03124 -59.31503 19869 ft 388 kts 80°
2026-05-09 08:38 -3.02670 -59.28848 20191 ft 394 kts 80°
2026-05-09 08:39 -3.02200 -59.26105 20591 ft 396 kts 80°
2026-05-09 08:39 -3.01727 -59.23346 21001 ft 398 kts 80°
2026-05-09 08:39 -3.01257 -59.20598 21322 ft 403 kts 80°
2026-05-09 08:39 -3.00784 -59.17838 21753 ft 403 kts 80°
2026-05-09 08:40 -3.00313 -59.15099 22093 ft 405 kts 81°
2026-05-09 08:40 -2.99832 -59.12284 22323 ft 411 kts 81°
2026-05-09 08:40 -2.99350 -59.09477 22680 ft 412 kts 81°
2026-05-09 08:40 -2.98866 -59.06648 23074 ft 413 kts 81°
2026-05-09 08:41 -2.98374 -59.03782 23276 ft 418 kts 80°
2026-05-09 08:41 -2.97886 -59.00930 23556 ft 421 kts 81°
2026-05-09 08:41 -2.97385 -58.98025 23914 ft 422 kts 81°
2026-05-09 08:41 -2.96888 -58.95122 24210 ft 425 kts 81°
2026-05-09 08:42 -2.96391 -58.92218 24381 ft 430 kts 81°
2026-05-09 08:42 -2.95884 -58.89260 24683 ft 432 kts 80°
2026-05-09 08:42 -2.95371 -58.86271 24930 ft 436 kts 80°
2026-05-09 08:42 -2.94859 -58.83293 25222 ft 437 kts 80°
2026-05-09 08:43 -2.94341 -58.80282 25512 ft 439 kts 80°
2026-05-09 08:43 -2.93824 -58.77266 25666 ft 444 kts 80°
2026-05-09 08:43 -2.93297 -58.74211 25984 ft 445 kts 80°
2026-05-09 08:43 -2.92776 -58.71184 26277 ft 446 kts 80°
2026-05-09 08:44 -2.92247 -58.68104 26488 ft 449 kts 80°
2026-05-09 08:44 -2.91715 -58.65011 26749 ft 450 kts 80°
2026-05-09 08:44 -2.91185 -58.61928 26947 ft 453 kts 80°
2026-05-09 08:44 -2.90650 -58.58818 27174 ft 456 kts 80°
2026-05-09 08:45 -2.90112 -58.55687 27381 ft 458 kts 80°
2026-05-09 08:45 -2.89573 -58.52549 27717 ft 457 kts 80°
2026-05-09 08:45 -2.89027 -58.49374 27846 ft 461 kts 80°
2026-05-09 08:45 -2.88487 -58.46237 27985 ft 464 kts 80°
2026-05-09 08:46 -2.87936 -58.43041 28281 ft 464 kts 80°
2026-05-09 08:46 -2.87393 -58.39888 28412 ft 468 kts 80°
2026-05-09 08:46 -2.86840 -58.36671 28585 ft 470 kts 80°
2026-05-09 08:46 -2.86283 -58.33441 28781 ft 472 kts 80°
2026-05-09 08:47 -2.85720 -58.30167 28948 ft 474 kts 80°
2026-05-09 08:47 -2.85161 -58.26935 29155 ft 475 kts 80°
2026-05-09 08:47 -2.84603 -58.23695 29346 ft 476 kts 80°
2026-05-09 08:47 -2.84045 -58.20448 29481 ft 479 kts 80°
2026-05-09 08:48 -2.83477 -58.17160 29682 ft 480 kts 81°
2026-05-09 08:48 -2.82907 -58.13857 29854 ft 481 kts 81°
2026-05-09 08:48 -2.82342 -58.10572 29992 ft 484 kts 81°
2026-05-09 08:48 -2.81766 -58.07238 30130 ft 486 kts 81°
2026-05-09 08:49 -2.81192 -58.03905 30323 ft 486 kts 81°
2026-05-09 08:49 -2.80614 -58.00559 30500 ft 488 kts 81°
2026-05-09 08:49 -2.80045 -57.97251 30639 ft 489 kts 81°
2026-05-09 08:49 -2.79460 -57.93872 30782 ft 491 kts 81°
2026-05-09 08:50 -2.78880 -57.90504 30902 ft 493 kts 81°
2026-05-09 08:50 -2.77896 -57.83797 30962 ft 488 kts 85°
2026-05-09 08:51 -2.77157 -57.77031 30962 ft 493 kts 84°
2026-05-09 08:51 -2.76388 -57.70247 30962 ft 493 kts 84°
2026-05-09 08:52 -2.75606 -57.63416 30957 ft 493 kts 84°
2026-05-09 08:52 -2.74830 -57.56644 30951 ft 493 kts 84°
2026-05-09 08:53 -2.74051 -57.49849 30950 ft 492 kts 84°
2026-05-09 08:53 -2.73276 -57.43085 30946 ft 491 kts 84°
2026-05-09 08:54 -2.72498 -57.36306 30949 ft 491 kts 84°
2026-05-09 08:54 -2.71720 -57.29529 30948 ft 492 kts 84°
2026-05-09 08:55 -2.70940 -57.22726 30944 ft 491 kts 84°
2026-05-09 08:55 -2.70158 -57.15924 30946 ft 491 kts 84°
2026-05-09 08:56 -2.69383 -57.09176 30951 ft 489 kts 84°
2026-05-09 08:56 -2.68605 -57.02396 30965 ft 489 kts 84°
2026-05-09 08:57 -2.67830 -56.95672 30968 ft 490 kts 84°
2026-05-09 08:57 -2.67051 -56.88905 30967 ft 490 kts 84°
2026-05-09 08:58 -2.66276 -56.82171 30967 ft 490 kts 84°
2026-05-09 08:58 -2.65493 -56.75378 30967 ft 490 kts 84°
2026-05-09 08:59 -2.64715 -56.68626 30967 ft 490 kts 84°
2026-05-09 08:59 -2.63937 -56.61874 30966 ft 489 kts 84°
2026-05-09 09:00 -2.63160 -56.55139 30965 ft 489 kts 84°
2026-05-09 09:00 -2.62391 -56.48468 30323 ft 478 kts 84°
2026-05-09 09:00 -2.62012 -56.45185 29339 ft 479 kts 84°
2026-05-09 09:01 -2.61633 -56.41907 28910 ft 466 kts 84°
2026-05-09 09:01 -2.61270 -56.38748 28272 ft 460 kts 84°
2026-05-09 09:01 -2.60908 -56.35607 27647 ft 453 kts 84°
2026-05-09 09:01 -2.60553 -56.32509 27139 ft 444 kts 84°
2026-05-09 09:02 -2.60205 -56.29490 26644 ft 435 kts 84°
2026-05-09 09:02 -2.59863 -56.26502 26143 ft 427 kts 84°
2026-05-09 09:02 -2.59527 -56.23588 25639 ft 419 kts 84°
2026-05-09 09:02 -2.59201 -56.20728 25219 ft 410 kts 83°
2026-05-09 09:03 -2.58877 -56.17927 24769 ft 401 kts 84°
2026-05-09 09:03 -2.58566 -56.15208 24305 ft 394 kts 84°
2026-05-09 09:03 -2.58370 -56.13487 25371 ft 391 kts 83°
2026-05-09 09:03 -2.58058 -56.10777 24417 ft 399 kts 83°
2026-05-09 09:04 -2.57742 -56.08030 23253 ft 410 kts 83°
2026-05-09 09:04 -2.57418 -56.05221 22568 ft 405 kts 83°
2026-05-09 09:04 -2.57098 -56.02438 22106 ft 396 kts 83°
2026-05-09 09:04 -2.56790 -55.99750 21627 ft 389 kts 83°
2026-05-09 09:05 -2.56482 -55.97073 21180 ft 381 kts 83°
2026-05-09 09:05 -2.56186 -55.94499 20746 ft 374 kts 83°
2026-05-09 09:05 -2.55892 -55.91949 20349 ft 366 kts 83°
2026-05-09 09:05 -2.55604 -55.89445 19952 ft 358 kts 83°
2026-05-09 09:06 -2.55323 -55.86997 19552 ft 351 kts 83°
2026-05-09 09:06 -2.55048 -55.84610 19146 ft 345 kts 83°
2026-05-09 09:06 -2.54774 -55.82233 18780 ft 338 kts 83°
2026-05-09 09:06 -2.54507 -55.79908 18386 ft 333 kts 83°
2026-05-09 09:07 -2.54245 -55.77633 18037 ft 326 kts 83°
2026-05-09 09:07 -2.53987 -55.75396 17663 ft 321 kts 83°
2026-05-09 09:07 -2.53735 -55.73209 17331 ft 315 kts 83°
2026-05-09 09:07 -2.53489 -55.71071 16972 ft 310 kts 83°
2026-05-09 09:08 -2.53243 -55.68934 16638 ft 304 kts 83°
2026-05-09 09:08 -2.53002 -55.66844 16291 ft 300 kts 83°
2026-05-09 09:08 -2.52766 -55.64794 15957 ft 295 kts 83°
2026-05-09 09:08 -2.52535 -55.62788 15633 ft 290 kts 83°
2026-05-09 09:09 -2.52306 -55.60803 15327 ft 285 kts 83°
2026-05-09 09:09 -2.52080 -55.58847 15006 ft 281 kts 83°
2026-05-09 09:09 -2.51860 -55.56934 14702 ft 276 kts 83°
2026-05-09 09:09 -2.51642 -55.55050 14395 ft 272 kts 83°
2026-05-09 09:10 -2.51428 -55.53191 14101 ft 268 kts 83°
2026-05-09 09:10 -2.51216 -55.51353 13802 ft 264 kts 83°
2026-05-09 09:10 -2.51005 -55.49526 13513 ft 259 kts 83°
2026-05-09 09:10 -2.50802 -55.47766 13221 ft 256 kts 83°
2026-05-09 09:11 -2.50595 -55.45982 12679 ft 264 kts 83°
2026-05-09 09:11 -2.50326 -55.44132 12000 ft 275 kts 81°
2026-05-09 09:11 -2.50021 -55.42199 11328 ft 285 kts 81°
2026-05-09 09:11 -2.49708 -55.40229 10654 ft 294 kts 81°
2026-05-09 09:12 -2.49388 -55.38220 10232 ft 292 kts 81°
2026-05-09 09:12 -2.49071 -55.36242 9935 ft 287 kts 81°
2026-05-09 09:12 -2.48756 -55.34277 9444 ft 289 kts 81°
2026-05-09 09:12 -2.48433 -55.32265 9062 ft 286 kts 81°
2026-05-09 09:13 -2.48122 -55.30339 8705 ft 283 kts 81°
2026-05-09 09:13 -2.47806 -55.28384 8269 ft 283 kts 81°
2026-05-09 09:13 -2.47490 -55.26441 7906 ft 281 kts 81°
2026-05-09 09:13 -2.47182 -55.24543 7527 ft 279 kts 81°
2026-05-09 09:14 -2.46867 -55.22613 7129 ft 278 kts 81°
2026-05-09 09:14 -2.46559 -55.20731 6770 ft 276 kts 81°
2026-05-09 09:14 -2.46247 -55.18830 6387 ft 275 kts 81°
2026-05-09 09:14 -2.45941 -55.16972 5880 ft 271 kts 81°
2026-05-09 09:15 -2.45638 -55.15142 5720 ft 260 kts 81°
2026-05-09 09:15 -2.45364 -55.13377 5457 ft 253 kts 86°
2026-05-09 09:15 -2.45379 -55.11633 5193 ft 247 kts 92°
2026-05-09 09:15 -2.45409 -55.09948 4945 ft 240 kts 86°
2026-05-09 09:16 -2.45258 -55.08315 4725 ft 234 kts 84°
2026-05-09 09:16 -2.44933 -55.05179 4302 ft 221 kts 84°
2026-05-09 09:16 -2.44776 -55.03674 4098 ft 214 kts 84°
2026-05-09 09:17 -2.44622 -55.02179 3916 ft 218 kts 84°
2026-05-09 09:17 -2.44461 -55.00624 3705 ft 234 kts 84°
2026-05-09 09:17 -2.44289 -54.98957 3497 ft 248 kts 84°
2026-05-09 09:17 -2.44111 -54.97209 3342 ft 258 kts 84°
2026-05-09 09:18 -2.43926 -54.95396 3230 ft 266 kts 84°
2026-05-09 09:18 -2.43740 -54.93554 3245 ft 268 kts 84°
2026-05-09 09:18 -2.43550 -54.91667 3252 ft 269 kts 84°
2026-05-09 09:18 -2.43407 -54.89838 3218 ft 256 kts 89°
2026-05-09 09:19 -2.43390 -54.88148 2947 ft 234 kts 87°
2026-05-09 09:19 -2.43297 -54.86576 2592 ft 223 kts 85°
2026-05-09 09:19 -2.43131 -54.85033 2178 ft 220 kts 80°
2026-05-09 09:19 -2.42932 -54.83559 1658 ft 213 kts 81°
2026-05-09 09:20 -2.42706 -54.82094 994 ft 217 kts 81°
2026-05-09 09:20 -2.42465 -54.80600 361 ft 220 kts 79°
2026-05-09 09:20 -2.42229 -54.79191 206 ft 188 kts 90°
2026-05-09 09:20 -2.42104 -54.78080 173 ft 137 kts 72°
2026-05-09 09:21 -2.42002 -54.77760 5 ft 3 kts 56°
2026-05-09 09:21 -2.41994 -54.77744 5 ft 2 kts 47°
2026-05-09 09:21 -2.41988 -54.77737 5 ft 1 kts 43°